Location: Trebic
(49.2170°N, 15.8830°E)
Time: 13:43:27
(UTC+02:00)

Transit 2A Rocket - Pass Details

Date: 27 July 2019
Orbit: 590 x 913 km, 66.7° (Epoch: 20 August)

Event Time Altitude Azimuth Distance (km) Brightness Sun altitude
Rises 03:05:19 0° 216° (SW) 3,508 - -16.3°
Reaches altitude 10° 03:07:53 10° 217° (SW) 2,548 - -16.1°
Exits shadow 03:10:10 24° 218° (SW) 1,718 6.2 -15.9°
Maximum altitude 03:13:50 84° 305° (NW) 859 5.2 -15.6°
Drops below altitude 10° 03:19:23 10° 35° (NE) 2,383 9.0 -15.1°
Sets 03:21:43 0° 36° (NE) 3,266 10.2 -14.9°
